Location: U-46 Planetarium
(42.0300°N, 88.2740°W)
Time: 18:33:20
(UTC-06:00)

Okean 2 - Pass Details

Date: 16 December 2017
Orbit: 562 x 577 km, 82.5° (Epoch: 21 January)

Event Time Altitude Azimuth Distance (km) Brightness Sun altitude
Rises 17:40:19 0° 166° (SSE) 2,752 7.0 -13.8°
Reaches altitude 10° 17:42:36 10° 157° (SSE) 1,857 6.0 -14.3°
Maximum altitude 17:46:20 35° 92° (E) 929 4.0 -14.9°
Enters shadow 17:48:01 24° 47° (NE) 1,182 4.5 -15.2°
